Stampede Pass, WA

11:19 AM PST on December 13, 2017 (GMT -0800)
Stampede Pass

Weather History for KSMP - February, 2011

Change the Weather History Date:

Sunday, February 13, 2011

  Actual Average Record
Temperature  
Mean Temperature 31 °F -  
Max Temperature 34 °F 30 °F 39 °F (2003)
Min Temperature 28 °F 23 °F 19 °F (2002)
Degree Days  
Heating Degree Days 34    
Moisture  
Dew Point 28 °F    
Average Humidity 94    
Maximum Humidity 100    
Minimum Humidity 85    
Precipitation  
Precipitation 0.25 in - - ()
Sea Level Pressure  
Sea Level Pressure 29.94 in    
Wind  
Wind Speed 7 mph (West)    
Max Wind Speed 12 mph    
Max Gust Speed 31 mph    
Visibility 4 miles    
Events Fog , Snow    
Averages and records for this station are not official NWS values.
T = Trace of Precipitation, MM = Missing Value Source: NWS Daily Summary

Daily Weather History Graph

Daily Weather History Graph

Search for Another Location

Airport or City:

Trip Planner

Search our weather history database for the weather conditions in past years. The results will help you decide how hot, cold, wet, or windy it might be!

Date:

Astronomy

Feb. 13, 2011 Rise Set
Actual Time 7:13 AM PST 5:25 PM PST
Civil Twilight 6:42 AM PST 5:57 PM PST
Nautical Twilight 6:06 AM PST 6:33 PM PST
Astronomical Twilight 5:30 AM PST 7:09 PM PST
Moon 12:14 PM PST 3:44 AM PST
Length of Visible Light 11h 15m
Length of Day
10h 12m
Waxing Gibbous, 75% of the Moon is Illuminated
Feb 13
Waxing Gibbous
Feb 18
Full
Feb 24
Last Quarter
Mar 4
New
Mar 12
First Quarter

Hourly Weather History & Observations

Time (PST) Temp. Windchill Dew Point Humidity Pressure Visibility Wind Dir Wind Speed Gust Speed Precip Events Conditions
12:44 AM 28.4 °F 19.1 °F 26.6 °F 93% 29.91 in 0.5 mi West 10.4 mph 31.1 mph 0.01 in Fog , Snow Snow
12:51 AM 28.4 °F 19.7 °F 28.4 °F 100% 29.91 in 0.2 mi West 9.2 mph 20.7 mph 0.01 in Fog , Snow Snow
12:56 AM 28.0 °F 21.7 °F 28.0 °F 100% 29.96 in 0.2 mi Variable 5.8 mph 20.7 mph 0.01 in Fog , Snow Snow
1:25 AM 28.4 °F 21.2 °F 28.4 °F 100% 29.93 in 0.5 mi Variable 6.9 mph 17.3 mph 0.02 in Fog , Snow Light Snow
1:56 AM 28.0 °F 18.6 °F 27.0 °F 96% 29.99 in 0.8 mi West 10.4 mph 21.9 mph 0.03 in Snow Light Snow
2:03 AM 28.4 °F 18.5 °F 26.6 °F 93% 29.95 in 0.8 mi West 11.5 mph 21.9 mph 0.00 in Snow Light Snow
2:12 AM 28.4 °F 19.1 °F 26.6 °F 93% 29.96 in 0.5 mi West 10.4 mph 21.9 mph 0.00 in Fog , Snow Light Snow
2:29 AM 28.4 °F 22.2 °F 28.4 °F 100% 29.96 in 0.2 mi Variable 5.8 mph - 0.00 in Fog , Snow Light Snow
2:56 AM 28.0 °F 21.7 °F 27.0 °F 96% 30.03 in 0.8 mi Variable 5.8 mph - 0.01 in   Overcast
3:02 AM 28.4 °F 22.2 °F 26.6 °F 93% 29.98 in 1.2 mi Variable 5.8 mph - N/A   Overcast
3:06 AM 28.4 °F 19.7 °F 26.6 °F 93% 29.98 in 2.0 mi West 9.2 mph - N/A   Overcast
3:14 AM 28.4 °F 20.4 °F 26.6 °F 93% 29.98 in 10.0 mi West 8.1 mph - N/A   Overcast
3:51 AM 28.4 °F 23.3 °F 26.6 °F 93% 29.99 in 1.8 mi Variable 4.6 mph - 0.00 in Snow Light Snow
3:56 AM 28.0 °F 22.8 °F 27.0 °F 96% 30.04 in 0.8 mi Variable 4.6 mph - 0.00 in Snow Light Snow
4:08 AM 28.4 °F 20.4 °F 26.6 °F 93% 29.99 in 0.8 mi West 8.1 mph 16.1 mph 0.00 in   Overcast
4:11 AM 28.4 °F 19.7 °F 26.6 °F 93% 29.99 in 1.5 mi West 9.2 mph 16.1 mph 0.00 in   Overcast
4:13 AM 28.4 °F 19.7 °F 26.6 °F 93% 29.99 in 4.0 mi West 9.2 mph 18.4 mph 0.00 in   Overcast
4:56 AM 28.0 °F 19.3 °F 27.0 °F 96% 30.07 in 2.5 mi West 9.2 mph 24.2 mph 0.01 in Snow Light Snow
5:22 AM 28.4 °F 19.1 °F 26.6 °F 93% 30.01 in 1.5 mi WNW 10.4 mph 19.6 mph 0.00 in Snow Light Snow
5:26 AM 28.4 °F 19.7 °F 26.6 °F 93% 30.02 in 2.0 mi West 9.2 mph 17.3 mph 0.00 in Snow Light Snow
5:30 AM 28.4 °F 19.7 °F 28.4 °F 100% 30.02 in 3.0 mi West 9.2 mph 17.3 mph 0.00 in Snow Light Snow
5:56 AM 28.9 °F 20.4 °F 27.0 °F 92% 30.09 in 3.0 mi WNW 9.2 mph 20.7 mph 0.00 in Snow Light Snow
6:25 AM 28.4 °F 19.7 °F 26.6 °F 93% 30.02 in 6.0 mi West 9.2 mph 23.0 mph 0.00 in Snow Light Snow
6:43 AM 28.4 °F 20.4 °F 26.6 °F 93% 30.02 in - West 8.1 mph 18.4 mph 0.00 in   Overcast
6:56 AM 28.9 °F 19.8 °F 28.0 °F 96% 30.10 in - WNW 10.4 mph 16.1 mph 0.00 in   Overcast
7:28 AM 28.4 °F 20.4 °F 26.6 °F 93% 30.01 in 5.0 mi West 8.1 mph 21.9 mph N/A   Overcast
7:43 AM 28.4 °F 23.3 °F 26.6 °F 93% 30.00 in 5.0 mi Variable 4.6 mph - N/A   Overcast
7:56 AM 28.0 °F 20.8 °F 27.0 °F 96% 30.09 in 8.0 mi Variable 6.9 mph - N/A   Mostly Cloudy
7:59 AM 28.4 °F 22.2 °F 26.6 °F 93% 30.00 in 9.0 mi Variable 5.8 mph - N/A   Scattered Clouds
8:56 AM 28.9 °F 22.8 °F 28.0 °F 96% 30.08 in 10.0 mi Variable 5.8 mph - 0.02 in   Scattered Clouds
9:21 AM 28.4 °F 23.3 °F 28.4 °F 100% 30.01 in 10.0 mi SW 4.6 mph - 0.01 in   Mostly Cloudy
9:56 AM 28.9 °F 25.2 °F 28.0 °F 96% 30.10 in 10.0 mi Variable 3.5 mph - 0.02 in   Clear
10:51 AM 30.2 °F - 30.2 °F 100% 30.00 in 10.0 mi Calm Calm - 0.01 in   Partly Cloudy
10:56 AM 30.9 °F - 30.0 °F 96% 30.08 in 10.0 mi Calm Calm - 0.02 in   Clear
11:31 AM 32.0 °F 28.7 °F 30.2 °F 93% 29.99 in 10.0 mi Variable 3.5 mph - 0.02 in   Partly Cloudy
11:56 AM 33.1 °F 28.7 °F 30.9 °F 92% 30.06 in 10.0 mi Variable 4.6 mph - 0.07 in   Scattered Clouds
12:05 PM 33.8 °F 30.8 °F 32.0 °F 93% 29.99 in 10.0 mi Variable 3.5 mph - 0.01 in   Mostly Cloudy
12:32 PM 33.8 °F 30.8 °F 30.2 °F 87% 29.98 in 10.0 mi Variable 3.5 mph - 0.03 in   Scattered Clouds
12:56 PM 34.0 °F 29.8 °F 30.9 °F 89% 30.04 in 10.0 mi Variable 4.6 mph - 0.03 in   Clear
1:29 PM 33.8 °F 29.6 °F 32.0 °F 93% 29.96 in 10.0 mi Variable 4.6 mph - N/A   Partly Cloudy
1:56 PM 34.0 °F 31.0 °F 30.9 °F 89% 30.03 in 10.0 mi Variable 3.5 mph - 0.02 in   Clear
2:56 PM 34.0 °F - 30.9 °F 89% 30.01 in 10.0 mi Calm Calm - N/A   Clear
3:56 PM 32.0 °F 28.7 °F 30.0 °F 92% 29.99 in 6.0 mi Variable 3.5 mph - N/A   Clear
4:03 PM 32.0 °F - 30.2 °F 93% 29.91 in 1.8 mi Calm Calm - N/A   Clear
4:14 PM 32.0 °F - 30.2 °F 93% 29.91 in 0.8 mi Calm Calm - N/A   Clear
4:34 PM 32.0 °F 28.7 °F 30.2 °F 93% 29.89 in 0.2 mi Variable 3.5 mph - N/A Fog Fog
4:44 PM 32.0 °F 28.7 °F 30.2 °F 93% 29.89 in 1.0 mi East 3.5 mph - N/A   Clear
4:56 PM 32.0 °F 27.5 °F 30.9 °F 96% 29.95 in 0.5 mi ENE 4.6 mph - N/A Fog Fog
5:10 PM 32.0 °F 27.5 °F 30.2 °F 93% 29.86 in 1.5 mi Variable 4.6 mph - N/A   Mostly Cloudy
5:12 PM 32.0 °F 28.7 °F 28.4 °F 87% 29.86 in 3.0 mi Variable 3.5 mph - N/A   Mostly Cloudy
5:56 PM 30.9 °F 25.2 °F 28.0 °F 89% 29.90 in 10.0 mi Variable 5.8 mph - N/A   Clear
6:56 PM 30.9 °F 24.3 °F 28.0 °F 89% 29.89 in 10.0 mi Variable 6.9 mph - N/A   Mostly Cloudy
7:56 PM 30.9 °F 26.2 °F 27.0 °F 85% 29.87 in 10.0 mi Variable 4.6 mph - 0.01 in   Overcast
8:24 PM 30.2 °F 23.4 °F 26.6 °F 86% 29.78 in 3.0 mi Variable 6.9 mph - 0.00 in Snow Light Snow
8:32 PM 30.2 °F 23.4 °F 26.6 °F 86% 29.78 in 2.0 mi Variable 6.9 mph 23.0 mph 0.00 in Snow Light Snow
8:47 PM 30.2 °F 23.4 °F 28.4 °F 93% 29.78 in 3.0 mi Variable 6.9 mph - 0.00 in Snow Light Snow
8:56 PM 30.0 °F 26.5 °F 28.0 °F 92% 29.86 in 3.0 mi Variable 3.5 mph - 0.00 in Snow Light Snow
9:14 PM 30.2 °F 23.4 °F 28.4 °F 93% 29.78 in 2.5 mi Variable 6.9 mph 19.6 mph 0.00 in Snow Light Snow
9:27 PM 30.2 °F 24.3 °F 28.4 °F 93% 29.78 in 2.0 mi Variable 5.8 mph - 0.00 in Snow Light Snow
9:36 PM 30.2 °F 23.4 °F 28.4 °F 93% 29.77 in 1.8 mi Variable 6.9 mph - 0.00 in Snow Light Snow
9:56 PM 30.0 °F 23.2 °F 28.9 °F 96% 29.84 in 0.8 mi Variable 6.9 mph 16.1 mph 0.00 in Snow Light Snow
10:08 PM 30.2 °F 23.4 °F 28.4 °F 93% 29.76 in 0.2 mi Variable 6.9 mph - 0.00 in Fog Light Freezing Fog
10:18 PM 30.2 °F 23.4 °F 28.4 °F 93% 29.75 in 0.5 mi Variable 6.9 mph - 0.00 in Fog Light Freezing Fog
10:26 PM 30.2 °F 24.3 °F 28.4 °F 93% 29.75 in 0.2 mi Variable 5.8 mph - 0.00 in Fog Light Freezing Fog
10:56 PM 30.0 °F 23.2 °F 30.0 °F 100% 29.82 in 0.2 mi Variable 6.9 mph - 0.00 in Fog Light Freezing Fog
11:52 PM 30.2 °F 22.6 °F 30.2 °F 100% 29.71 in - ENE 8.1 mph - N/A   Overcast
11:56 PM 30.0 °F 25.2 °F 30.0 °F 100% 29.77 in - Variable 4.6 mph - N/A   Overcast